GFSCGP_850_spd_093.txt.gz
Wind_Speed
13 5 10 12 11 11 12 13 15 12 10 13 13 16 21 27 18 12 15 24 24 24 27 29 27 27 26 23 22 21 17 14 13 15 13 13 14 16 15 18 23 31 38 44
7 19 14 14 13 15 18 19 20 17 12 13 17 21 20 27 8 14 17 23 31 31 32 35 34 33 31 28 24 22 16 15 15 14 14 11 12 16 19 24 28 34 47 48
15 7 20 17 18 18 18 16 13 13 4 4 10 20 15 24 14 17 23 30 25 38 33 42 40 36 33 29 26 22 16 18 18 18 17 13 16 19 26 31 38 42 48 61
16 13 19 16 21 17 17 14 17 18 2 4 4 12 20 22 24 19 23 29 35 29 38 47 43 38 34 29 24 21 15 21 20 20 18 16 19 26 27 34 39 38 45 53
15 6 7 10 8 9 11 11 14 4 2 4 7 7 7 18 21 19 11 27 37 41 44 48 44 40 34 28 25 20 16 22 23 22 18 20 22 29 32 32 33 30 35 38
14 17 6 7 7 12 2 3 2 3 3 7 11 10 4 12 18 17 17 24 24 39 44 46 44 40 33 27 25 21 22 24 25 24 23 24 30 36 38 34 33 35 38 43
9 18 15 9 7 8 2 4 2 2 4 6 9 11 16 21 22 22 22 31 30 39 41 45 44 41 35 31 28 24 26 28 28 25 26 30 37 38 33 32 33 34 41 41
7 4 14 16 15 8 8 7 4 6 4 3 6 6 5 17 26 34 21 16 30 34 39 46 44 42 37 32 28 27 28 32 32 31 29 35 41 36 33 32 35 40 43 41
4 6 2 7 18 14 7 9 11 8 7 2 4 11 18 16 10 15 10 12 14 31 40 45 44 43 38 33 28 28 28 34 35 33 31 35 40 39 35 34 39 44 44 39
4 2 7 9 8 12 10 5 6 5 4 10 8 13 8 20 15 16 7 5 15 28 37 44 44 44 39 34 29 29 28 32 37 37 35 36 39 39 38 37 41 43 42 39
6 0 5 3 1 6 7 11 4 4 2 3 2 4 6 4 10 17 19 11 13 7 4 31 45 45 41 37 32 32 30 32 37 39 38 37 37 38 39 39 39 42 42 42
3 1 2 3 6 7 4 14 14 7 7 8 9 14 5 7 9 15 20 32 8 8 8 11 45 46 44 41 35 34 32 32 34 38 39 39 37 36 39 41 41 39 45 45
5 4 2 6 0 11 6 2 6 8 8 14 5 6 9 9 12 4 11 25 27 1 7 3 40 42 44 42 38 35 32 32 32 37 39 41 40 39 39 39 40 38 42 46
4 1 2 1 3 4 10 13 7 7 4 7 12 17 14 7 7 9 20 21 21 19 8 11 33 40 42 40 37 35 31 30 32 35 37 40 44 42 40 39 40 39 39 43
1 1 3 8 7 11 12 13 15 8 9 8 11 14 9 7 10 6 9 18 17 12 16 4 17 32 36 38 36 33 29 28 28 33 36 37 39 41 42 41 40 41 41 41
5 3 5 6 8 9 12 14 13 11 11 10 8 8 7 14 20 23 26 22 26 16 20 3 2 17 37 35 36 33 30 29 29 32 34 34 35 37 40 41 41 41 40 39
4 3 4 3 7 8 6 8 11 14 12 7 5 8 15 16 18 22 31 32 15 16 20 19 13 10 17 16 30 35 34 32 31 34 34 36 36 36 36 40 43 44 41 39
3 2 1 3 5 2 5 8 11 6 13 12 11 14 13 16 29 22 30 22 7 20 19 16 13 10 6 8 9 16 34 34 36 35 36 38 37 36 35 36 38 41 44 45
10 4 1 2 2 6 9 5 5 7 8 10 11 13 13 25 27 6 34 28 22 23 21 15 12 10 8 7 9 4 10 39 37 37 37 39 41 39 36 36 36 36 37 38
11 6 4 1 3 3 2 11 15 11 3 9 10 12 14 22 9 5 25 26 26 22 21 17 11 10 9 9 9 15 10 7 31 38 39 39 39 42 41 39 36 34 35 39
9 5 9 5 3 5 7 1 5 3 2 12 15 10 12 8 14 25 11 15 17 20 19 17 18 16 14 12 11 11 13 11 15 32 33 38 38 38 37 37 39 40 41 41
5 6 4 3 2 6 17 8 5 4 16 18 16 17 11 16 28 12 15 16 15 13 17 20 21 20 19 16 13 11 10 9 8 13 31 36 37 39 39 36 39 40 39 39
1 5 4 6 4 4 17 16 15 17 13 15 18 19 21 22 18 14 19 16 16 16 16 16 18 18 23 24 20 15 12 8 6 3 10 19 25 29 32 37 40 38 36 37
3 8 2 2 9 10 16 13 11 13 16 14 15 17 19 18 15 14 15 16 16 18 15 14 18 25 26 26 23 19 14 9 5 4 4 7 11 18 23 25 27 30 32 32
3 5 4 5 13 17 17 14 11 11 14 13 14 18 17 15 15 13 11 14 15 11 13 14 15 15 17 17 22 22 20 15 8 4 6 8 10 14 16 18 19 23 24 25
5 4 4 3 10 13 10 10 13 14 14 13 11 15 17 15 13 9 12 12 11 12 13 12 12 10 13 14 17 17 17 14 19 15 10 6 10 18 22 25 27 19 18 20

GFSCGP_850_spd_096.txt.gz
Wind_Speed
6 4 7 10 11 4 3 5 7 1 5 5 10 20 11 9 19 20 26 29 35 25 27 32 38 38 34 31 30 27 22 18 16 16 22 22 23 26 26 26 29 33 35 36
2 14 7 7 6 7 9 11 17 13 10 12 13 20 11 7 11 18 20 27 31 25 23 35 43 40 37 34 32 27 22 18 15 15 18 20 23 25 28 30 28 29 39 45
11 5 15 11 11 12 12 13 12 17 10 7 4 18 14 13 14 22 31 27 32 24 28 41 46 43 40 37 33 28 23 19 16 16 17 20 20 20 21 23 29 37 34 41
10 12 13 11 15 13 15 16 18 16 7 9 4 17 13 13 18 20 27 29 32 32 27 45 50 47 43 39 33 27 23 20 18 18 20 21 21 22 22 22 24 29 34 38
7 3 14 17 16 13 14 17 15 17 6 4 3 3 8 1 12 20 18 27 30 35 28 43 54 50 45 39 34 29 24 21 18 19 19 19 19 21 19 23 24 29 37 43
8 11 1 4 4 7 5 7 5 2 4 4 6 4 21 2 9 16 17 21 30 29 23 39 53 52 46 39 33 30 26 21 18 18 20 20 22 22 23 27 29 28 36 42
8 19 13 6 7 7 5 2 2 2 1 6 7 7 15 15 15 20 24 28 36 33 24 38 48 53 47 41 36 32 28 23 20 21 23 23 23 24 25 29 30 30 35 37
7 6 13 8 19 8 8 8 5 5 5 7 6 6 5 6 13 30 24 25 36 36 26 44 53 56 49 42 37 33 30 25 22 22 21 21 25 25 29 32 34 35 32 31
5 6 3 4 20 14 7 8 7 4 3 3 4 5 6 6 12 21 23 36 28 42 35 47 49 53 49 43 38 34 30 26 24 24 24 24 26 30 34 33 32 32 34 37
4 4 3 6 5 6 11 7 1 2 6 13 6 6 8 9 16 15 21 17 26 8 35 38 48 50 47 42 37 34 29 26 24 25 28 26 28 32 36 33 29 30 30 35
3 1 5 4 1 7 4 1 1 1 4 5 2 4 6 7 9 19 20 30 27 26 15 34 46 47 46 44 39 34 32 29 26 27 31 30 30 33 38 32 30 29 30 35
1 2 4 7 6 4 3 3 5 4 5 4 3 5 9 8 12 5 19 29 35 32 18 26 34 41 44 43 39 36 34 32 27 28 31 33 33 36 37 36 33 32 33 36
2 1 2 2 4 6 5 4 6 5 4 12 3 4 3 12 6 4 16 30 35 32 28 15 33 39 42 42 39 37 34 32 29 27 31 35 36 37 39 39 36 35 35 38
6 2 2 2 2 3 2 6 7 4 2 4 4 7 8 4 4 8 17 30 27 27 29 10 30 37 42 42 41 37 34 32 30 27 30 37 38 38 38 36 37 38 39 41
4 3 3 1 3 4 6 5 13 4 7 3 4 6 4 7 8 12 9 21 10 33 35 14 23 30 33 36 37 36 34 32 31 29 30 36 38 38 38 38 37 38 41 42
6 3 4 3 5 5 6 6 4 8 8 11 12 5 8 7 5 10 15 18 5 19 25 16 14 17 22 30 34 35 34 33 31 31 32 30 35 39 40 39 39 38 40 42
1 1 3 2 6 6 4 3 7 3 9 5 0 4 7 9 12 15 18 19 19 17 23 24 27 20 10 12 16 25 29 30 32 33 31 31 33 36 38 41 40 41 42 40
3 3 2 2 3 2 3 9 10 13 10 9 8 9 8 9 5 21 27 19 19 17 20 20 19 18 16 13 9 16 24 23 30 34 34 32 31 35 37 37 40 42 40 41
9 4 1 2 0 5 3 5 3 3 8 11 7 9 10 15 4 16 21 18 18 16 17 19 18 17 12 11 9 5 10 24 26 32 34 35 33 34 36 39 39 37 40 41
6 5 4 2 2 3 1 6 11 7 4 14 11 11 10 19 7 4 14 12 15 17 18 18 18 17 18 17 13 8 3 4 21 27 33 31 33 37 39 36 37 37 37 39
3 2 4 2 0 5 1 8 12 3 1 12 14 15 14 7 8 22 21 17 15 15 18 19 19 20 21 19 18 14 10 6 6 13 23 29 34 36 36 35 38 40 39 40
4 4 3 3 3 6 9 1 3 5 3 9 13 14 12 9 11 18 15 20 16 19 19 19 19 20 18 16 15 16 16 15 14 12 10 15 29 36 38 36 37 40 41 42
3 2 4 5 3 6 17 16 13 11 10 10 9 11 7 10 11 11 10 13 16 15 15 15 18 20 22 17 14 15 16 13 13 13 8 7 12 20 30 31 35 38 41 41
1 5 1 2 6 11 13 13 16 14 11 8 8 9 10 10 11 10 12 13 12 11 12 13 16 20 20 20 18 17 14 11 9 9 7 3 4 7 10 14 20 23 25 32
4 5 4 5 6 13 14 13 10 12 10 8 10 13 13 12 12 11 12 12 11 9 10 10 14 15 14 15 17 18 17 13 12 12 12 9 5 2 5 8 7 7 10 11
7 4 1 2 9 8 9 10 11 14 11 9 9 12 13 13 11 10 11 11 11 11 9 9 10 9 10 10 15 15 16 15 14 14 14 16 17 15 11 9 17 22 15 15

GFSCGP_850_spd_099.txt.gz
Wind_Speed
8 6 11 9 9 6 4 4 4 0 4 6 8 14 10 10 18 14 21 28 32 34 34 33 28 29 41 42 42 42 37 31 25 23 23 25 27 28 28 29 30 27 34 30
1 11 7 9 8 5 6 6 5 4 8 7 14 25 15 7 8 19 19 25 31 35 31 28 26 34 38 39 42 42 37 31 25 23 21 22 23 24 27 28 28 25 35 39
7 6 10 12 6 7 6 9 3 10 2 6 7 22 9 5 8 19 20 24 34 32 28 25 25 39 41 42 44 41 37 31 25 22 19 20 22 23 26 28 27 26 32 38
7 10 10 8 10 8 12 6 13 7 3 4 4 13 12 4 11 7 20 28 37 33 29 24 30 42 45 45 44 40 35 30 24 21 21 19 22 24 27 28 31 31 26 34
8 2 7 12 7 9 5 7 9 9 5 1 4 3 4 4 4 12 13 23 30 36 28 20 32 41 50 49 47 41 35 30 25 21 21 20 22 20 20 23 24 25 32 28
6 1 2 5 2 5 2 4 4 1 3 5 6 7 16 5 5 6 7 21 34 33 26 20 28 37 49 46 46 40 36 30 26 21 21 21 19 19 18 20 23 23 26 28
1 12 3 4 4 4 3 1 3 2 2 7 10 7 14 9 14 8 7 18 33 31 28 23 30 35 47 51 46 42 36 32 26 21 22 21 20 17 18 19 20 21 21 26
2 6 10 7 16 7 8 8 5 6 4 8 7 7 5 1 6 14 21 27 34 37 33 30 31 37 44 52 49 44 38 33 27 23 23 23 20 19 19 20 21 19 19 27
3 5 5 6 7 13 5 9 8 8 2 2 4 6 5 2 11 15 23 36 40 42 39 25 34 37 43 48 52 46 39 33 27 24 24 24 23 22 21 21 22 21 22 24
3 3 5 3 3 8 14 6 3 2 7 13 3 3 5 7 10 13 17 29 44 43 42 13 32 38 42 46 50 46 38 31 27 25 24 24 23 23 22 23 26 25 23 26
2 1 6 6 1 4 4 4 5 5 5 8 9 5 6 4 1 7 12 30 36 37 34 11 20 27 33 45 51 45 39 32 28 27 26 25 25 24 24 26 26 27 26 27
5 3 4 12 1 2 2 2 5 4 5 2 3 6 7 2 6 4 5 22 36 35 29 19 18 22 30 41 48 45 39 34 29 27 28 27 24 25 26 29 30 26 24 25
6 4 3 2 1 3 4 3 3 1 3 4 5 3 5 6 4 4 8 18 38 40 38 33 4 26 29 38 43 44 39 35 30 27 28 29 28 27 28 29 31 28 25 23
3 1 6 6 1 2 2 1 2 3 2 1 3 3 3 7 4 1 3 5 23 30 34 40 16 20 27 33 41 41 38 36 32 28 27 29 30 30 29 28 31 31 29 28
3 3 11 9 3 2 3 3 5 3 4 3 3 5 5 7 11 12 15 6 10 28 34 33 14 11 19 26 31 33 33 34 31 29 28 28 29 28 30 31 32 32 33 32
4 0 4 3 4 2 2 5 4 5 3 3 4 11 4 8 17 17 16 11 9 14 22 23 20 13 8 10 19 26 29 31 30 28 27 26 27 29 31 32 33 33 33 35
1 0 3 3 5 6 1 2 3 7 6 1 1 2 6 4 8 13 14 17 16 13 14 18 19 17 14 6 9 15 21 23 25 28 28 27 26 28 30 33 34 35 35 35
3 2 1 3 5 1 2 4 13 13 9 8 6 4 4 7 2 13 16 17 17 17 17 15 18 18 14 13 2 6 13 15 18 24 26 25 25 25 28 30 33 35 36 37
9 3 2 2 1 4 3 3 3 2 4 8 3 8 10 13 13 15 19 16 14 14 16 18 16 14 11 14 10 6 3 13 15 20 21 22 24 27 29 32 34 33 34 37
7 4 2 1 2 3 3 3 6 1 2 4 5 7 9 13 3 2 14 14 12 13 14 14 13 12 11 12 11 7 7 7 14 16 17 22 27 30 29 30 32 34 36 36
3 2 7 2 3 5 2 6 8 4 2 3 4 7 8 3 4 5 11 16 13 12 13 12 12 14 14 12 10 8 8 7 5 4 8 16 22 26 30 33 28 31 34 34
4 5 4 3 3 6 9 3 3 3 3 4 8 9 9 8 7 8 11 13 12 13 13 16 17 19 19 16 13 12 10 9 8 8 8 9 11 18 26 30 34 34 35 36
3 3 3 4 2 5 16 15 13 7 9 9 9 9 8 7 9 9 10 11 12 14 13 15 17 21 22 22 19 16 15 10 8 7 6 6 5 7 11 19 27 32 34 33
3 5 1 3 7 10 15 18 15 11 13 9 8 9 9 9 8 8 8 10 11 12 13 13 15 21 24 23 22 22 19 17 13 10 8 8 5 4 2 3 7 13 20 24
2 8 4 4 4 7 17 14 11 12 10 9 9 11 10 9 10 9 9 10 12 13 11 12 13 15 17 17 18 18 20 17 13 13 13 15 15 14 13 13 13 9 8 3
5 4 3 1 4 7 7 11 8 9 10 9 7 9 10 10 10 10 10 10 9 10 10 11 12 10 11 11 13 16 17 14 14 14 14 16 18 20 23 23 25 25 21 17

GFSCGP_850_spd_102.txt.gz
Wind_Speed
8 5 11 8 9 5 2 5 5 1 3 3 7 14 6 12 17 12 21 25 25 25 30 31 32 31 28 25 31 40 44 42 35 32 29 28 29 28 25 24 25 27 27 26
3 18 7 8 7 6 6 6 5 4 6 5 8 25 9 7 8 19 23 24 22 26 32 33 32 32 30 23 30 37 44 42 38 34 29 28 27 31 29 27 28 29 25 27
7 4 11 12 7 9 6 9 3 8 4 3 5 19 9 7 8 19 18 21 20 24 30 33 31 30 28 26 31 36 45 43 40 34 30 26 25 28 28 29 29 28 25 24
7 7 5 7 8 7 10 8 9 6 2 3 4 8 0 6 6 4 13 18 20 22 34 34 29 27 30 29 32 37 42 43 41 35 30 27 26 26 28 28 28 26 26 24
6 3 8 10 6 8 5 8 8 6 5 1 3 4 5 3 7 9 7 16 18 23 29 29 29 27 30 31 33 37 40 44 40 33 29 25 24 23 23 25 28 26 24 14
5 1 3 7 5 8 5 3 3 2 3 3 8 7 3 4 2 3 3 13 18 23 33 33 30 30 32 30 33 37 42 43 38 31 28 25 22 22 22 22 25 26 30 30
0 10 2 3 3 2 3 5 1 1 1 5 6 5 8 5 4 4 6 14 19 24 31 38 35 28 32 32 33 40 43 43 37 32 27 24 22 20 20 19 20 21 23 26
6 2 10 7 12 8 7 7 4 5 4 3 4 6 5 4 5 7 6 8 19 33 38 42 39 32 36 36 35 41 44 43 39 33 27 24 21 19 16 16 16 16 19 23
3 3 2 3 5 12 5 5 7 2 1 1 4 6 5 4 5 6 10 17 23 33 42 44 46 33 31 41 39 39 45 44 40 32 26 23 21 21 19 18 17 17 15 12
3 1 3 2 4 4 6 5 3 1 3 5 4 3 5 2 5 6 7 13 22 35 46 47 42 32 26 34 33 33 42 45 39 30 26 23 22 21 19 18 17 16 10 6
6 2 6 5 2 2 2 3 4 4 5 3 7 5 5 4 4 5 1 9 19 33 50 47 37 31 25 26 30 31 40 43 37 29 25 24 23 22 22 20 19 16 12 8
2 1 2 6 3 3 3 2 6 3 3 2 2 11 5 5 8 6 5 3 17 31 43 42 40 23 23 24 28 32 38 41 34 28 24 25 24 23 24 23 21 19 15 15
5 2 1 4 3 3 4 2 1 2 3 5 4 5 3 6 5 7 4 9 15 27 39 42 41 11 20 19 26 32 36 35 29 26 24 26 25 25 24 24 24 21 20 19
1 1 2 4 3 5 4 3 2 1 2 3 4 4 6 7 7 10 12 16 11 24 26 32 33 3 11 17 21 24 28 32 29 24 23 24 26 23 23 23 24 25 23 20
2 1 2 4 5 10 5 3 2 1 2 4 3 3 2 5 7 10 17 17 11 15 22 29 28 24 2 10 18 22 28 30 27 25 23 20 22 21 22 22 23 24 26 24
4 3 2 3 4 10 7 8 4 8 7 10 6 4 1 4 11 17 14 17 14 15 18 21 22 21 16 9 10 12 19 25 25 22 20 17 16 22 22 22 22 23 25 26
2 2 2 1 2 7 5 5 2 4 3 2 4 3 7 5 9 14 15 15 15 17 19 21 24 25 21 12 4 8 12 14 15 17 20 19 18 17 21 23 23 24 26 27
5 3 1 3 4 2 4 4 8 10 5 6 4 6 7 4 10 14 14 12 14 16 20 22 22 18 17 17 9 2 8 7 8 6 12 13 17 19 19 20 24 26 27 29
12 2 2 1 1 5 2 2 1 3 0 4 5 6 9 9 12 14 19 16 13 13 15 16 17 17 16 15 11 7 14 16 15 14 14 15 19 20 21 24 24 24 26 28
6 4 3 1 1 3 2 1 8 2 2 0 4 5 5 15 3 4 17 18 16 15 17 16 14 14 13 16 11 15 15 12 11 11 14 17 19 20 22 24 24 27 29 27
2 1 6 2 1 6 3 7 5 2 2 5 7 8 12 5 6 8 12 15 16 16 17 15 15 19 18 17 17 16 13 12 7 2 3 8 13 17 21 22 24 25 24 27
3 3 3 3 3 6 11 5 1 2 12 13 13 11 10 9 9 10 11 13 14 15 16 19 20 23 22 20 19 19 19 17 12 8 5 3 4 7 11 15 19 26 28 29
1 2 2 4 2 6 11 9 11 10 14 12 13 12 9 10 10 10 11 13 14 12 15 16 19 20 22 22 21 22 21 17 14 12 11 8 6 3 3 3 6 13 22 27
3 3 3 4 4 9 10 15 16 17 18 15 14 13 13 11 10 10 11 12 14 13 14 13 15 18 22 22 22 22 20 19 15 13 14 13 11 10 8 6 4 4 4 5
4 6 5 4 5 6 13 11 11 14 13 15 15 14 13 10 10 12 13 14 14 14 14 15 16 16 18 18 19 19 19 18 16 17 18 17 17 17 17 15 14 11 11 8
4 4 3 2 7 6 6 9 10 12 14 14 12 12 11 9 9 9 12 13 14 14 14 14 15 14 15 14 14 15 14 14 14 17 19 18 18 20 22 22 22 22 19 18

GFSCGP_850_spd_105.txt.gz
Wind_Speed
17 10 17 21 17 11 5 12 15 3 2 4 13 18 11 12 17 18 22 20 20 22 20 18 17 19 22 23 24 23 29 34 42 43 39 36 33 29 27 26 24 23 24 25
7 20 15 11 10 14 15 17 14 5 7 7 16 21 15 13 17 25 22 20 22 18 15 15 19 19 21 22 24 24 26 30 39 44 41 38 33 28 26 26 23 24 24 24
11 6 16 11 10 13 14 18 13 13 4 7 8 19 14 5 13 14 14 15 12 10 10 18 21 21 19 21 25 25 23 29 34 43 42 38 31 28 26 28 26 25 26 26
12 11 5 11 17 13 16 11 12 9 5 8 2 8 5 10 7 5 7 4 4 6 10 17 22 24 22 21 22 26 25 28 33 43 43 39 33 29 27 25 29 28 30 29
9 7 14 11 9 15 8 9 12 11 9 6 8 6 2 3 6 1 1 5 3 8 15 18 21 22 25 22 21 26 25 26 33 41 43 37 32 27 24 23 26 29 29 27
4 2 6 8 6 17 7 5 3 3 3 6 10 9 3 7 6 2 2 2 6 9 15 20 24 23 25 23 21 25 26 27 34 40 42 35 30 26 24 23 25 27 27 28
4 4 1 3 6 6 6 7 3 4 5 6 9 9 7 3 1 3 2 6 9 13 17 21 24 28 25 27 25 25 26 30 35 40 39 35 28 24 22 21 22 26 30 31
11 8 15 10 6 8 11 11 5 6 5 1 5 6 2 2 9 5 3 5 10 13 15 20 25 28 28 31 24 26 28 31 36 39 39 32 26 23 22 18 19 21 27 30
5 2 4 4 11 9 5 9 1 2 2 2 4 5 4 6 4 3 2 3 11 18 22 25 24 29 33 30 24 26 29 33 35 39 38 31 25 22 21 16 17 16 17 20
2 1 1 2 6 4 5 8 6 3 4 6 5 6 5 10 6 3 2 6 12 16 23 29 24 34 40 31 22 24 28 32 33 38 35 31 22 21 19 17 19 18 16 18
4 2 1 1 1 6 5 4 1 3 4 3 2 2 3 5 3 2 3 3 10 16 24 30 28 48 43 29 19 23 28 31 33 37 36 29 22 21 20 19 19 18 16 14
3 1 2 3 2 0 3 7 9 5 4 4 6 7 2 4 6 4 4 4 7 15 24 30 36 52 41 13 17 23 26 28 34 35 34 26 22 22 22 21 20 18 16 11
4 1 2 4 2 3 2 1 3 3 1 9 6 2 3 6 9 6 8 9 3 14 24 37 40 47 36 9 16 21 24 30 32 31 30 24 23 23 22 22 21 18 16 13
1 1 2 1 3 2 1 1 1 3 4 4 7 5 3 8 10 9 12 9 6 11 21 30 38 43 39 11 17 18 23 27 29 27 25 21 22 22 21 21 21 20 19 18
4 2 2 7 4 4 4 5 2 3 1 5 2 2 4 6 7 9 12 15 15 17 19 25 29 34 31 11 5 9 19 23 25 23 20 18 19 21 20 20 21 21 22 20
4 1 1 2 5 4 4 6 6 7 4 7 9 7 7 6 9 12 14 15 16 18 20 18 13 16 24 18 6 11 15 21 20 18 15 11 10 19 20 19 19 21 22 24
3 3 3 1 2 6 5 6 8 3 2 2 4 3 7 7 9 13 15 15 17 20 20 24 25 27 24 19 10 10 16 16 16 12 10 9 7 7 16 18 19 20 21 22
4 5 3 2 3 2 5 4 6 8 6 7 3 6 9 3 11 14 16 16 16 17 19 22 23 22 24 21 16 10 15 11 11 10 6 2 7 7 8 10 19 19 19 21
11 2 3 1 3 3 2 3 3 1 2 5 3 6 8 2 11 17 19 17 15 15 16 16 16 15 14 19 22 16 18 20 17 16 7 16 13 13 14 15 13 14 19 20
6 7 3 1 3 1 2 1 6 2 1 4 5 7 5 9 1 4 15 18 16 16 15 16 16 14 15 17 18 15 20 15 13 14 14 12 14 15 16 18 20 16 17 20
2 1 6 6 2 3 5 10 3 2 2 6 9 11 14 6 6 6 10 13 14 15 15 16 21 21 18 15 13 17 20 18 13 8 4 3 7 10 12 14 17 21 23 24
1 2 2 3 3 6 12 2 1 6 10 9 12 12 11 9 9 10 11 12 14 16 17 18 21 24 23 22 21 22 20 17 13 9 5 2 2 5 7 9 12 14 21 24
1 1 3 2 1 4 10 13 12 9 10 8 11 10 9 9 9 10 12 12 14 14 16 17 21 23 24 22 23 23 22 18 16 14 12 9 5 3 1 1 3 5 10 16
1 4 2 3 5 7 13 16 17 15 16 11 11 9 10 10 9 11 12 13 15 15 16 15 17 21 22 22 21 20 20 19 18 19 17 16 14 12 11 10 9 8 8 9
3 6 5 2 4 8 18 14 13 13 12 11 10 10 11 10 12 11 13 14 15 15 16 16 17 18 18 17 18 20 20 19 20 19 19 18 19 19 19 18 17 15 16 11
4 3 3 2 7 8 9 10 10 13 11 10 9 11 11 11 11 10 13 13 14 14 14 15 17 16 18 17 17 17 17 17 17 19 19 18 19 20 23 24 26 25 21 19

GFSCGP_850_spd_108.txt.gz
Wind_Speed
29 16 24 30 24 19 17 12 15 14 7 13 16 19 19 17 16 17 19 21 22 22 21 17 11 11 15 20 24 25 25 26 25 35 41 42 41 38 35 32 29 27 27 28
18 29 23 14 19 18 12 12 20 14 8 11 16 22 19 17 18 22 23 24 23 20 15 11 9 9 11 18 20 23 24 24 24 33 39 40 43 39 36 32 30 27 26 26
20 12 22 17 15 18 19 21 18 18 10 14 19 24 24 22 22 26 22 17 15 12 10 7 6 8 11 13 17 20 20 21 24 25 33 34 37 36 37 34 31 27 25 24
16 6 18 22 21 19 21 20 18 13 10 14 5 10 5 4 12 11 12 11 9 8 5 5 7 10 11 14 16 18 18 20 24 26 33 40 42 40 36 33 30 27 26 24
11 16 13 20 20 20 15 13 12 15 16 15 19 9 12 6 14 11 10 10 7 5 3 4 7 11 14 15 14 14 15 19 23 28 36 37 29 25 22 21 23 25 25 25
5 3 15 17 10 18 8 8 9 8 9 12 18 14 11 11 12 8 7 7 4 3 4 7 9 11 14 14 15 12 15 19 22 29 35 33 29 25 24 24 23 23 25 27
12 11 7 10 15 15 13 15 6 7 6 10 6 12 13 5 5 8 6 5 4 2 5 8 12 14 14 16 15 14 15 19 22 28 34 31 28 27 23 20 18 20 26 30
14 14 14 12 12 12 21 18 6 8 9 10 9 8 5 8 10 6 4 1 2 3 5 9 13 16 18 20 19 15 17 19 23 26 34 30 29 23 20 20 19 20 24 22
13 12 4 13 10 12 14 14 10 6 1 3 8 5 4 8 9 7 7 5 6 8 10 14 19 16 16 25 24 20 18 21 25 24 33 36 31 23 18 17 17 16 16 22
2 7 9 7 8 18 10 13 9 9 6 8 8 10 5 12 11 9 10 7 4 8 14 18 20 21 22 27 29 23 20 24 26 25 33 32 30 22 18 16 17 16 17 19
6 4 8 10 8 14 10 11 9 8 9 5 2 3 4 7 6 6 5 4 6 9 14 17 22 23 26 27 27 20 22 25 27 26 31 29 29 22 20 17 17 17 15 15
8 3 7 8 4 6 14 16 15 8 9 10 10 5 4 3 1 3 5 6 9 9 13 18 22 26 30 28 16 10 18 24 27 25 27 30 29 23 22 21 18 19 18 15
7 1 6 6 6 5 8 10 14 13 8 10 8 3 6 4 2 2 5 8 6 9 15 18 23 30 35 27 14 10 15 21 25 24 28 32 31 26 24 22 21 20 19 17
6 2 3 2 4 2 6 9 10 12 8 9 8 4 10 2 2 5 9 13 14 14 17 19 23 28 37 31 19 9 15 21 24 22 28 30 29 27 25 22 21 21 19 19
4 4 6 6 4 4 5 6 9 12 11 6 4 5 7 4 7 8 10 11 13 16 19 21 23 26 36 36 21 4 16 19 21 24 28 24 25 25 20 20 20 20 19 18
5 2 4 5 5 6 9 11 11 10 7 7 7 7 3 9 8 10 11 13 16 17 19 20 24 26 30 36 25 8 13 22 21 22 20 20 22 26 23 19 18 19 19 19
4 4 3 0 1 3 8 13 13 10 4 5 7 6 5 4 8 10 11 14 16 17 19 22 23 25 27 29 23 11 15 20 14 15 14 15 13 20 21 18 18 18 18 19
5 6 4 2 4 4 5 5 9 7 3 3 5 3 4 8 12 11 15 15 15 19 20 20 21 21 22 23 17 5 19 19 18 19 17 15 14 12 13 17 16 16 16 18
9 5 3 3 5 3 6 4 2 4 5 6 3 3 3 15 10 15 17 16 17 18 19 19 18 17 19 21 19 12 24 27 23 18 16 17 16 14 11 10 10 13 15 15
5 9 6 2 4 2 6 5 14 7 4 4 7 8 9 4 0 4 14 16 16 17 18 18 19 19 17 20 16 21 23 23 18 17 14 14 14 15 15 14 12 13 11 12
3 3 8 7 4 0 8 9 16 5 4 9 10 11 14 7 6 6 10 13 13 15 17 17 18 22 24 21 20 26 25 25 16 12 9 10 7 5 7 11 14 16 16 19
5 4 1 3 3 3 19 2 5 5 10 10 12 10 10 9 8 9 10 12 13 14 15 16 19 23 25 25 24 26 29 23 16 8 11 11 8 5 4 5 8 13 18 21
1 5 4 5 4 7 11 11 11 8 9 10 11 8 8 8 8 8 10 11 13 14 14 14 16 20 23 23 23 26 25 20 18 15 15 14 10 8 6 4 6 9 12 15
2 6 3 4 7 8 11 13 13 12 12 10 10 9 9 9 8 8 9 11 13 14 15 14 14 17 19 19 21 22 20 20 16 18 19 17 14 13 12 11 11 12 13 13
4 6 5 2 5 6 12 11 9 10 10 11 12 10 9 8 8 8 9 11 12 13 14 14 15 15 16 16 17 18 18 16 16 16 19 22 22 22 21 21 20 19 18 13
4 4 4 3 8 6 6 7 8 10 12 11 8 7 9 8 8 7 9 9 10 12 12 14 14 15 15 14 14 14 13 13 13 15 19 21 23 25 26 27 29 27 24 21

GFSCGP_850_spd_111.txt.gz
Wind_Speed
40 23 26 40 32 30 28 17 21 16 19 11 17 21 20 21 19 18 18 16 17 18 19 20 19 10 13 16 17 19 19 22 24 23 26 31 43 36 34 24 23 23 24 26
22 29 40 27 27 30 25 20 23 21 7 10 15 19 18 19 21 24 23 22 24 24 23 22 16 13 14 16 17 19 20 20 24 25 26 35 40 37 37 33 28 25 25 24
31 35 27 26 25 26 27 24 22 19 9 16 20 21 21 21 22 26 24 25 26 25 22 19 12 12 13 14 12 15 19 21 22 24 27 33 30 33 35 38 36 31 29 27
27 26 27 27 27 22 24 20 19 16 12 19 19 18 19 22 11 23 28 30 25 20 13 12 12 12 10 9 9 11 14 18 21 24 27 30 38 35 35 36 35 30 29 26
20 16 23 26 25 20 17 15 14 16 18 18 18 13 17 14 14 13 16 17 15 12 13 12 9 8 8 8 10 12 13 15 19 24 27 31 36 26 22 23 26 32 30 27
15 16 13 19 19 19 10 7 11 12 13 15 21 17 11 15 12 18 12 15 15 12 8 6 5 6 8 8 10 12 14 15 18 24 25 34 31 25 24 24 24 27 26 25
7 19 19 12 18 16 15 15 6 6 8 15 19 17 15 6 15 17 14 15 10 7 4 3 5 8 11 13 13 15 15 18 19 24 25 36 33 28 25 24 24 22 22 23
8 8 10 12 17 14 21 19 6 6 10 12 14 9 12 21 6 12 14 10 8 7 4 4 7 10 13 14 17 20 19 20 21 24 29 31 31 32 29 26 22 20 19 20
11 13 18 15 13 15 22 16 14 5 8 4 8 9 4 6 17 10 11 8 7 2 2 7 10 12 15 17 22 23 24 24 24 26 29 30 36 34 32 25 22 20 16 15
9 6 9 16 13 12 15 14 13 8 5 6 8 11 5 14 10 10 7 6 5 3 6 9 10 14 17 20 25 24 27 27 27 28 30 30 38 36 28 26 23 19 17 18
9 8 7 12 14 20 12 12 12 11 11 5 7 1 12 15 14 11 8 2 2 3 8 9 11 15 19 21 24 25 26 23 26 31 32 31 40 36 28 26 24 19 17 18
7 7 14 19 12 15 23 16 18 9 14 9 9 2 2 10 9 3 2 0 5 7 12 12 15 19 20 24 28 25 20 13 23 29 30 31 37 35 29 27 23 19 17 17
9 3 2 5 6 8 15 17 14 13 11 7 8 7 7 9 9 7 6 15 10 11 13 15 18 20 21 25 27 26 19 14 20 26 30 27 30 32 31 24 22 20 21 18
10 5 5 4 5 5 11 16 18 14 9 11 11 12 16 13 7 15 13 13 11 11 12 15 17 20 21 24 29 26 19 15 20 24 24 26 31 28 29 24 21 22 21 19
7 7 8 3 9 4 4 10 10 12 12 9 4 14 16 5 14 14 12 8 10 12 15 17 20 22 23 26 31 30 18 12 19 21 24 30 34 28 23 22 21 21 22 20
11 5 8 9 8 6 6 7 7 11 10 11 12 9 15 12 16 13 10 10 12 14 15 17 18 21 23 26 33 33 23 9 17 24 27 32 29 29 23 23 22 21 23 20
6 6 7 3 3 3 7 11 12 11 11 8 12 6 4 10 11 11 9 11 12 14 17 18 20 21 22 27 32 32 23 11 20 23 26 25 28 28 24 22 21 20 20 20
8 9 5 5 3 5 4 7 8 10 8 7 2 7 8 13 14 11 10 11 13 14 17 19 21 21 22 24 27 26 15 4 15 20 19 20 22 25 25 21 19 19 18 18
11 5 4 4 5 7 8 8 8 10 4 9 6 7 8 16 13 12 12 12 12 14 16 19 19 19 19 22 25 23 13 8 12 22 25 24 24 23 20 18 18 17 17 17
5 7 5 5 4 2 7 10 15 17 3 7 6 8 8 8 3 3 12 12 12 14 17 18 18 20 17 21 23 23 18 18 15 13 20 22 22 22 24 23 22 19 16 17
1 3 9 8 6 5 14 11 8 5 4 9 9 10 10 5 5 5 8 11 13 13 16 17 16 20 21 21 24 25 22 23 21 14 18 18 20 21 21 21 22 21 20 19
4 4 2 4 5 2 22 5 5 1 7 9 12 11 9 8 6 6 9 12 14 16 16 17 18 19 21 22 23 24 28 22 18 20 20 17 18 14 16 16 16 17 18 14
2 5 3 6 4 7 12 11 11 10 8 10 10 9 7 6 7 8 10 12 15 16 16 17 17 17 18 21 23 26 26 22 25 26 21 20 18 15 16 14 13 13 12 16
3 7 3 6 6 6 11 10 10 10 10 10 10 9 8 7 7 9 10 12 13 15 17 17 16 17 17 19 19 21 21 20 22 25 25 21 20 19 17 16 14 13 13 13
5 9 6 2 4 2 8 10 9 9 9 10 11 11 9 7 9 10 11 12 13 14 15 16 18 18 18 17 18 19 19 18 23 24 22 26 29 29 27 27 24 20 17 13
6 4 4 3 9 4 7 7 8 9 11 11 9 9 10 10 10 9 10 11 12 14 15 15 16 16 18 17 17 18 19 19 20 20 21 25 28 30 29 28 29 27 24 22

GFSCGP_850_spd_114.txt.gz
Wind_Speed
28 23 28 33 32 31 26 26 27 26 25 25 26 27 23 25 21 19 20 29 19 16 18 19 20 22 21 22 21 13 13 15 24 27 28 27 31 32 32 33 32 36 30 30
17 29 30 34 31 28 29 28 27 19 17 2 6 17 16 15 19 23 21 17 21 18 17 18 21 23 19 13 10 11 13 16 17 24 29 29 31 32 34 33 33 27 26 28
23 24 31 33 30 32 28 27 23 25 5 14 10 15 20 17 17 21 23 28 29 24 22 22 24 20 15 10 10 12 16 18 21 25 26 25 31 37 40 38 34 29 31 29
21 26 33 30 34 30 25 26 26 20 6 4 12 8 17 15 18 17 21 23 17 19 19 19 18 16 10 9 8 12 12 15 18 22 28 31 38 41 41 39 35 34 32 29
8 18 26 28 32 31 24 19 21 11 6 8 13 10 20 20 22 20 27 35 27 20 26 15 13 10 10 8 10 7 10 13 14 19 26 33 38 38 34 30 32 37 33 33
23 33 22 32 25 27 21 4 7 5 7 8 20 15 15 17 26 23 19 12 15 18 14 10 10 7 4 7 6 9 10 12 14 16 21 31 35 36 32 28 26 31 36 34
23 10 14 16 14 22 14 13 4 4 7 13 14 15 18 15 14 20 11 20 25 20 12 8 8 6 0 4 7 4 10 16 14 18 22 24 30 34 29 28 29 27 35 37
15 10 11 16 14 14 16 16 6 7 7 9 19 11 17 23 17 19 18 24 22 16 12 8 7 6 6 10 12 15 17 15 22 19 22 29 32 32 30 30 30 33 32 33
10 1 11 17 7 15 21 18 16 2 7 4 8 17 5 22 8 14 15 21 13 13 14 10 9 7 7 10 14 20 23 21 24 26 22 30 35 34 33 34 26 36 29 23
6 9 20 18 10 14 16 17 13 7 3 3 5 15 4 6 19 17 12 13 15 11 11 7 6 8 8 12 18 24 25 24 28 29 28 31 36 32 30 38 29 32 30 27
13 6 9 13 7 12 9 13 11 11 9 2 1 1 13 6 12 5 8 14 23 21 20 16 11 10 11 14 23 27 31 33 25 25 28 33 36 31 32 37 28 30 28 25
9 5 4 9 13 13 12 14 16 7 10 5 1 2 9 11 12 11 25 19 22 14 15 15 14 15 17 19 23 30 33 34 24 22 14 31 31 27 31 36 30 33 30 26
8 4 5 8 7 14 17 15 12 12 7 5 4 1 12 3 2 22 21 18 16 17 18 17 18 20 19 21 24 30 32 33 25 20 19 26 28 27 35 35 29 33 25 24
7 6 5 3 8 9 8 16 15 11 7 8 5 2 10 12 16 15 20 19 19 20 21 21 21 21 21 22 24 30 33 31 24 19 22 26 25 25 34 31 30 33 24 25
10 6 5 14 11 6 8 9 7 15 12 8 13 4 10 12 15 13 15 16 17 18 18 19 21 24 24 25 29 32 34 31 22 18 20 24 23 23 30 32 31 28 26 27
11 5 14 16 10 13 4 6 10 15 9 10 5 1 13 13 16 15 16 16 14 15 16 18 19 22 22 26 30 33 35 31 20 18 20 22 23 24 30 32 29 25 27 26
7 4 9 4 13 10 3 7 5 7 4 3 6 8 10 15 14 13 11 13 15 15 15 16 17 20 21 24 27 30 31 28 21 16 18 21 22 27 30 28 28 28 28 25
5 8 5 6 7 1 11 21 17 14 19 17 14 14 15 17 17 15 16 16 13 13 14 15 17 21 19 21 24 25 25 22 17 8 15 22 24 30 26 29 27 27 30 24
7 4 4 4 7 4 20 16 9 9 10 17 10 11 13 17 17 17 15 13 11 11 13 13 14 17 16 20 22 24 22 21 14 3 11 21 24 29 27 28 27 26 25 25
7 7 5 8 5 3 10 17 12 7 2 15 14 12 6 6 2 5 12 11 10 11 12 13 14 17 18 22 24 27 26 24 21 16 7 8 25 27 30 29 28 28 26 26
4 4 7 7 5 5 16 19 17 3 5 11 17 15 18 8 7 7 9 10 9 11 13 14 15 19 21 23 25 29 30 27 22 17 13 5 16 27 32 32 31 30 25 25
3 3 4 6 4 0 26 8 6 3 7 10 9 13 12 10 9 9 9 9 12 14 16 17 18 19 20 21 25 28 29 24 21 20 19 17 12 9 25 32 30 27 25 25
3 5 2 4 3 6 11 13 13 13 11 13 11 11 10 10 10 9 9 10 14 16 18 18 18 19 20 22 23 25 22 22 23 22 23 22 21 17 15 22 30 32 31 30
3 14 3 4 5 6 10 11 14 15 14 12 12 11 9 9 10 10 10 12 16 19 20 18 19 21 22 22 20 19 19 20 22 24 22 24 25 24 22 21 22 18 21 24
7 6 6 4 4 3 12 12 11 12 13 12 11 11 11 10 11 10 12 13 14 17 18 18 20 21 21 21 20 18 18 18 21 24 26 26 26 31 31 30 28 23 22 20
7 3 3 2 7 5 6 8 10 10 10 12 10 10 11 12 11 11 12 12 12 13 14 17 19 20 21 20 20 21 20 18 21 23 25 26 26 28 29 31 34 32 29 27

GFSCGP_850_spd_117.txt.gz
Wind_Speed
19 13 15 22 23 23 23 19 21 17 15 19 27 25 18 14 23 18 23 30 34 36 46 44 40 34 31 28 36 35 34 39 40 37 32 27 24 28 34 36 33 33 30 28
15 22 24 22 23 25 25 24 23 17 15 18 17 8 17 9 9 29 24 25 23 29 32 44 44 37 31 24 24 19 14 29 32 29 27 26 21 23 30 31 34 35 35 32
16 20 19 20 21 27 27 24 22 17 2 5 8 7 9 5 7 19 35 32 26 23 22 20 25 28 26 24 23 20 16 12 13 15 19 23 23 24 30 31 36 38 37 35
6 12 17 24 29 25 23 23 25 23 18 4 3 4 7 11 9 6 9 9 13 23 24 19 13 26 27 23 22 19 16 16 14 8 24 26 29 32 35 37 38 37 35 31
11 17 22 18 29 24 22 24 24 25 9 6 5 3 6 6 6 12 9 18 16 16 23 17 17 25 12 9 10 9 12 13 13 15 12 18 31 33 36 36 40 39 34 33
20 17 13 12 18 20 26 22 13 3 6 2 8 6 5 5 10 8 13 20 21 13 9 22 24 21 21 19 16 12 9 5 5 7 12 20 19 32 38 38 39 35 31 40
18 20 13 13 14 20 22 14 6 1 2 4 12 7 14 8 11 18 18 20 9 26 24 29 30 23 19 16 14 11 6 4 10 15 12 15 19 26 35 37 36 33 28 34
9 19 12 10 3 8 12 8 5 2 5 4 4 7 7 14 19 24 24 21 31 32 33 28 20 16 14 9 5 3 5 10 15 21 24 25 19 22 32 31 30 30 30 30
8 10 22 11 6 10 9 11 3 0 2 3 5 4 7 13 4 12 23 30 24 30 31 26 21 18 12 10 13 16 16 20 22 23 26 29 31 25 32 34 31 31 31 33
7 8 13 18 12 2 11 6 4 3 1 4 4 4 3 8 14 12 19 22 24 35 34 30 25 18 10 9 13 18 23 26 27 28 29 28 29 31 28 36 35 30 37 33
9 5 5 9 4 5 3 5 4 1 4 1 2 3 7 9 11 18 17 32 22 27 30 24 18 12 8 8 13 18 22 26 29 30 30 28 29 30 33 35 35 31 33 31
6 3 6 6 17 8 13 6 5 3 4 2 6 3 8 18 11 19 24 28 20 24 23 18 13 12 12 14 17 21 26 26 30 31 30 25 22 21 29 32 29 33 33 35
6 4 5 10 9 11 3 11 11 12 2 1 2 4 9 19 19 22 23 25 19 22 22 18 18 20 19 21 24 25 27 30 32 32 27 23 20 22 28 24 25 34 33 37
7 3 3 1 6 6 10 16 15 6 2 3 3 8 13 16 13 14 23 21 19 24 23 22 22 21 23 24 26 29 31 34 35 34 25 22 22 23 22 24 28 34 35 35
6 4 8 13 13 9 13 10 12 9 8 2 5 13 13 11 13 14 15 16 18 19 19 23 25 25 26 26 28 31 34 37 37 34 26 21 20 23 23 24 29 31 38 32
7 3 9 6 11 9 6 8 9 7 12 11 11 10 16 16 16 17 22 17 19 24 26 25 22 24 25 26 30 33 35 38 37 34 29 22 19 22 23 24 30 35 36 30
4 4 5 4 16 6 6 15 9 11 18 4 4 9 12 12 13 17 17 19 22 19 18 19 20 24 25 27 28 30 33 34 34 31 27 22 19 23 24 24 30 36 34 27
5 4 2 4 8 3 6 17 15 17 19 19 15 10 13 14 17 18 15 13 12 13 16 17 20 23 24 25 26 27 28 28 28 27 24 21 15 21 21 24 28 37 28 32
1 1 2 2 4 3 13 18 14 13 10 16 15 7 18 21 23 19 15 12 12 12 13 14 16 20 21 24 24 25 27 26 26 25 21 19 11 20 21 31 36 34 34 30
3 2 2 3 3 4 6 20 26 10 6 12 14 12 8 11 3 4 11 11 11 12 14 14 15 17 19 21 22 23 27 26 25 23 21 19 15 13 22 30 31 34 34 33
4 3 4 3 2 5 13 19 20 4 4 11 15 12 17 9 8 7 9 14 15 16 16 15 14 17 17 18 21 23 26 25 24 20 19 17 12 5 18 31 33 33 35 34
4 3 2 3 4 3 25 9 7 7 10 10 13 11 14 13 11 10 10 15 17 19 17 16 16 16 17 17 20 23 25 24 21 20 19 20 17 7 4 27 33 34 34 36
3 2 2 4 2 4 11 11 13 15 14 17 14 12 11 10 11 10 11 16 19 19 17 16 16 16 17 18 20 22 24 23 22 21 22 22 22 19 12 10 29 34 37 38
3 11 3 3 6 8 11 9 12 11 14 13 13 17 12 12 11 12 13 15 17 18 17 16 16 17 18 19 19 20 21 22 23 26 23 23 26 27 26 21 18 18 25 31
4 5 4 3 6 6 11 9 8 9 10 14 11 9 12 13 12 10 10 11 11 13 15 14 16 17 18 19 20 20 20 19 22 24 25 25 27 31 33 34 31 26 24 21
4 2 2 1 2 5 4 4 7 8 8 10 11 12 12 11 11 9 9 9 10 11 12 13 14 15 17 17 19 20 19 18 19 22 23 25 26 29 33 34 36 36 33 31

GFSCGP_850_spd_120.txt.gz
Wind_Speed
5 3 11 16 17 18 19 21 22 24 23 19 22 23 28 15 20 21 27 32 33 36 39 37 35 34 39 38 35 36 32 36 43 47 44 40 35 30 29 29 29 27 26 25
1 13 20 17 20 19 20 22 23 22 23 21 22 26 24 19 18 27 25 30 33 37 41 36 38 38 40 37 40 39 38 37 43 45 47 41 33 27 27 29 27 29 29 28
8 14 7 11 15 19 25 29 20 21 20 20 17 8 15 7 19 22 14 21 30 34 32 36 39 40 40 35 30 28 26 31 41 45 45 36 28 25 29 33 30 30 33 32
8 7 9 13 20 19 25 19 20 22 18 10 2 7 5 6 9 6 7 2 19 35 33 32 32 33 25 22 21 20 20 23 28 32 29 29 29 30 28 28 30 29 32 33
12 7 9 15 19 11 17 18 19 22 19 12 15 3 7 6 5 9 9 8 6 8 11 17 30 33 29 30 30 30 27 23 20 17 14 14 28 31 28 28 28 28 31 31
19 17 5 16 24 13 9 16 17 17 6 12 19 10 6 6 13 7 5 8 10 23 36 37 37 34 31 28 27 24 22 19 15 11 11 10 10 13 28 34 33 31 32 31
13 3 2 9 15 6 7 7 1 4 6 7 17 9 17 6 5 7 7 1 7 34 35 34 31 31 26 22 21 19 15 11 8 8 8 9 10 11 16 20 27 31 32 34
7 9 6 9 2 6 8 11 5 4 3 4 13 8 6 11 12 10 5 18 29 25 20 25 24 24 22 19 15 10 5 2 8 11 14 15 17 19 21 23 25 27 31 32
7 8 20 8 11 3 1 6 17 2 7 2 5 4 6 10 11 10 24 34 34 33 27 37 30 24 20 15 12 8 6 10 16 21 23 24 23 23 29 31 28 28 30 33
4 9 7 15 9 3 7 4 3 3 2 3 1 3 3 10 19 20 19 22 32 31 33 29 26 22 17 12 9 9 10 12 18 23 27 27 26 28 29 33 33 33 32 33
7 4 8 6 4 4 7 3 5 2 1 3 3 2 5 10 13 21 17 23 29 31 28 23 21 18 16 14 13 14 14 16 19 22 28 29 28 29 30 31 32 38 33 35
4 4 6 11 9 11 5 11 7 2 3 2 2 2 14 16 17 17 21 23 26 32 27 23 20 17 18 18 18 21 22 21 22 23 26 28 28 29 29 25 30 34 34 34
6 3 6 8 3 10 5 9 14 4 2 5 1 2 13 18 19 25 23 24 27 31 29 24 24 26 23 21 21 22 21 21 23 25 27 27 27 26 25 22 19 25 30 34
8 3 2 5 10 6 7 16 16 8 3 3 1 4 15 14 13 19 23 20 23 26 17 16 23 22 21 22 22 23 24 24 27 29 29 28 25 23 22 22 17 24 26 30
2 4 5 15 9 5 5 12 12 9 10 3 9 4 8 10 13 16 20 17 19 17 16 20 22 24 25 25 26 27 28 28 30 32 33 32 26 22 21 24 21 22 25 28
5 4 6 6 4 6 11 11 15 11 13 13 16 9 11 17 18 20 16 14 16 18 17 19 23 25 26 28 30 30 31 31 31 32 33 33 26 21 18 21 22 23 26 28
4 3 5 4 13 7 8 15 17 12 22 7 5 6 10 14 16 18 16 17 15 16 17 18 20 23 24 26 28 30 31 30 30 31 31 32 28 23 19 20 21 26 28 29
4 4 2 4 8 3 5 16 8 19 18 18 14 10 10 15 18 19 22 18 17 18 18 18 21 21 22 23 26 28 30 31 31 31 32 32 30 25 22 20 24 28 28 31
6 1 3 2 3 3 8 14 9 6 10 13 11 7 7 12 13 18 18 17 15 15 16 14 16 17 19 22 25 27 30 33 34 34 34 35 32 26 21 20 24 27 28 33
7 1 2 3 2 5 4 19 21 7 7 12 13 10 5 11 3 3 12 13 13 14 16 16 17 18 20 23 24 25 28 31 33 34 31 30 28 24 19 19 21 29 35 40
5 4 3 3 2 2 12 20 19 3 4 10 11 9 13 6 6 3 8 12 15 16 17 16 16 20 21 21 23 25 27 30 29 28 26 25 23 20 16 16 14 26 39 40
4 3 4 4 4 4 26 8 6 3 13 13 10 8 11 11 8 6 9 12 15 16 16 16 16 17 19 20 22 25 27 26 26 25 24 24 23 19 15 14 12 23 37 40
3 2 2 4 2 5 7 9 10 11 10 12 16 12 8 9 7 7 9 12 16 17 15 15 16 16 18 20 21 22 24 24 24 24 24 23 21 19 16 11 6 14 27 35
3 7 3 4 4 6 7 7 9 10 11 9 8 13 10 9 8 9 9 11 14 16 17 16 16 17 19 20 20 20 21 22 22 23 23 22 24 25 25 25 16 4 17 26
2 4 1 3 5 6 6 6 6 6 5 10 10 10 10 6 8 6 8 10 12 14 15 15 16 17 18 17 19 19 19 20 21 22 22 22 24 26 32 34 35 29 24 19
4 2 1 2 2 2 2 3 5 5 6 5 6 7 8 8 7 6 8 9 11 13 14 14 14 14 16 16 16 17 18 18 18 20 22 22 22 24 29 34 35 36 34 31

GFSCGP_850_spd_123.txt.gz
Wind_Speed
5 2 10 11 12 15 16 18 22 27 23 23 25 27 19 29 27 32 34 32 34 42 44 42 36 34 31 32 34 44 39 33 36 42 43 41 39 36 32 29 27 26 25 24
1 9 15 8 8 13 18 22 23 22 25 19 26 25 24 27 26 34 35 35 30 38 43 37 35 36 35 35 36 36 38 35 36 41 42 44 43 38 35 28 23 24 27 25
6 9 3 8 12 14 20 19 23 24 28 21 17 29 22 27 35 36 38 36 39 35 42 40 34 35 34 33 39 41 38 36 35 41 46 47 43 42 32 27 26 26 25 27
6 5 10 8 12 12 23 16 21 24 15 11 6 20 11 19 21 13 28 31 34 35 30 28 19 24 28 34 38 41 32 36 40 42 43 42 42 39 35 30 26 25 26 28
9 8 6 6 9 11 20 14 15 13 14 12 22 12 10 14 15 10 9 25 11 9 16 15 14 17 19 22 25 25 25 27 31 33 30 30 27 28 25 27 27 26 25 29
13 9 4 7 10 17 17 9 7 10 10 8 24 5 9 9 14 6 5 9 20 23 24 28 39 41 40 38 35 33 30 27 23 23 24 26 23 31 33 31 27 27 28 28
9 4 2 5 7 6 6 3 3 3 2 6 5 7 16 9 13 5 4 25 29 29 31 31 42 41 37 36 33 30 25 23 18 16 14 13 15 16 21 23 27 31 31 32
6 10 2 5 6 6 4 6 3 4 3 6 4 7 6 11 6 15 24 31 32 36 33 31 33 35 32 31 27 23 19 16 12 8 5 6 10 14 17 19 22 25 28 30
6 8 10 17 13 6 1 6 11 5 8 4 3 6 4 18 21 18 20 28 29 35 30 29 30 28 28 25 21 16 13 10 6 3 3 7 12 15 18 22 26 31 30 30
5 11 7 9 6 6 4 6 0 3 5 4 3 3 4 11 17 19 18 21 27 27 29 27 27 25 22 20 17 12 9 7 8 9 11 13 13 15 17 21 23 28 31 33
5 5 10 10 5 6 6 4 4 3 4 4 3 3 6 13 14 17 19 26 25 26 25 27 27 22 21 19 16 14 8 6 10 14 16 18 20 21 21 22 26 29 31 33
5 3 6 13 4 6 2 2 4 3 4 2 3 2 13 16 17 17 22 24 24 22 23 25 28 26 22 17 14 12 10 11 14 17 19 22 24 25 26 27 27 28 31 33
4 3 5 9 4 2 3 6 9 8 3 1 3 3 10 10 15 19 18 23 20 18 20 25 28 26 24 24 23 21 20 18 17 18 19 21 22 25 25 27 27 26 24 25
3 3 5 4 12 13 9 11 12 3 2 2 2 4 7 13 13 13 12 19 23 19 18 24 29 28 28 28 27 25 24 22 21 21 22 22 23 26 26 27 25 23 22 19
2 4 4 11 11 10 12 8 11 12 12 2 7 8 10 9 11 13 20 20 34 24 33 32 30 27 25 27 27 26 25 27 26 25 25 26 26 26 25 26 23 22 24 22
3 3 4 4 7 8 17 20 16 11 12 9 10 9 7 14 19 26 24 25 21 22 21 23 21 22 23 27 26 27 29 28 27 28 27 27 28 27 24 23 22 23 27 25
3 2 3 4 7 5 4 14 13 8 18 8 8 5 5 13 16 19 15 16 16 15 14 16 19 21 23 24 25 26 27 27 28 29 29 29 29 29 25 22 21 20 23 25
3 2 2 4 5 4 3 10 7 10 14 14 9 6 8 15 16 15 14 15 16 15 16 16 19 22 24 25 26 26 26 27 28 30 32 33 33 32 28 23 21 20 23 25
9 1 2 1 3 3 3 8 8 6 8 14 13 10 4 4 1 15 17 16 15 16 17 17 20 21 21 23 25 26 27 28 30 33 34 35 35 35 32 28 22 20 23 26
3 2 2 3 3 2 2 19 19 7 5 13 13 12 14 16 4 5 17 17 17 18 19 19 19 19 20 22 24 25 27 30 33 35 34 34 34 33 32 29 25 19 20 23
4 3 3 3 1 2 12 20 16 2 4 14 12 10 13 7 6 7 13 17 19 19 19 17 17 19 22 21 23 25 28 31 31 32 31 31 32 31 30 27 24 18 15 19
4 3 3 3 3 2 21 8 5 5 10 12 13 9 8 7 7 10 14 17 21 22 21 21 20 21 20 21 23 24 27 27 27 28 29 30 31 31 27 22 18 16 14 15
2 2 1 3 1 5 7 8 8 10 8 10 11 12 5 6 7 9 12 15 19 20 20 18 19 18 19 21 23 24 26 26 27 27 28 28 30 31 29 24 18 15 6 10
2 6 2 2 2 3 6 4 6 7 9 8 7 8 6 6 6 8 10 11 13 17 18 17 17 19 20 20 20 21 23 24 26 26 26 26 28 31 33 30 29 25 17 7
1 4 0 1 2 2 3 7 7 6 5 7 7 8 7 5 6 8 9 12 13 14 14 14 15 17 19 19 20 20 23 24 25 24 23 23 24 26 30 34 34 33 31 20
2 1 1 3 2 2 1 3 6 7 7 6 6 7 6 6 7 8 10 10 11 12 13 13 14 16 18 19 20 21 22 23 24 23 23 22 21 23 25 26 29 30 30 30

GFSCGP_850_spd_126.txt.gz
Wind_Speed
2 0 6 9 10 10 8 11 15 22 21 24 21 24 23 34 29 31 31 35 44 43 44 39 39 45 43 48 51 52 46 44 45 45 43 42 42 40 38 36 34 30 29 26
2 8 9 6 7 10 12 11 22 22 23 18 25 29 26 24 29 32 34 36 42 47 41 40 43 46 44 45 50 57 52 46 47 47 43 44 40 39 38 36 34 31 27 26
5 6 4 4 4 10 16 10 19 19 23 25 23 28 31 20 27 43 41 47 46 47 42 39 41 46 44 42 35 42 43 43 47 49 47 45 42 40 39 38 37 32 29 26
6 4 3 2 6 8 12 6 14 17 12 11 6 15 29 22 23 26 25 36 42 47 42 42 39 36 41 45 42 40 41 43 44 46 44 44 43 42 41 41 37 31 27 24
8 4 4 5 7 5 10 9 12 14 14 10 19 6 17 16 23 21 20 33 41 41 41 31 28 26 27 26 27 30 35 39 41 38 38 39 38 37 36 34 33 32 25 22
10 8 4 6 6 11 14 10 11 4 2 5 9 6 17 6 9 11 11 14 8 17 22 27 26 24 22 17 19 23 28 33 33 33 29 29 27 30 28 27 29 33 23 24
8 4 3 4 4 3 3 4 4 5 2 7 7 10 12 21 21 15 3 21 27 29 35 36 38 39 37 35 33 30 29 28 24 24 25 24 23 22 25 21 24 23 27 36
5 7 2 3 5 7 9 5 2 5 5 17 17 6 7 14 20 25 23 27 32 33 37 39 40 41 39 35 35 33 30 29 25 22 19 16 14 13 13 17 22 22 40 46
4 6 6 13 15 4 1 4 5 5 9 6 5 5 1 14 18 17 22 29 28 30 33 35 35 34 33 31 31 29 26 24 20 15 12 11 9 10 12 14 17 24 29 30
4 7 6 6 3 4 2 5 2 1 4 5 3 5 12 10 14 16 17 21 24 27 29 32 31 31 29 27 27 23 20 19 16 11 7 3 4 8 12 15 20 24 29 34
1 1 9 9 1 5 4 3 3 4 4 4 5 3 13 14 13 14 16 21 22 26 27 30 28 27 27 27 25 24 21 17 12 10 9 10 11 11 13 16 20 24 29 33
2 3 6 12 14 3 1 4 3 3 4 4 3 4 11 14 15 16 18 20 22 23 27 31 29 26 29 31 27 22 21 17 15 12 12 14 16 17 18 19 20 24 28 31
3 2 5 9 4 4 6 6 7 8 4 2 4 3 9 14 15 21 19 24 26 25 29 27 27 34 36 31 25 23 21 20 16 14 13 13 14 16 19 21 23 25 27 30
2 3 6 5 8 5 13 11 12 4 3 6 4 5 12 14 15 18 26 28 28 29 30 34 37 35 34 32 28 24 22 21 19 18 17 17 18 19 21 23 24 26 25 27
2 4 3 9 13 5 13 18 18 10 12 4 7 8 10 11 11 14 19 26 26 30 31 32 32 32 31 29 27 25 23 23 24 25 25 24 22 21 22 24 25 26 26 26
1 3 2 5 6 5 9 14 16 15 14 5 7 8 7 7 14 24 25 26 27 22 26 27 28 29 29 27 25 23 24 27 25 25 25 27 27 25 25 25 25 24 25 25
1 2 2 4 5 7 3 9 8 8 16 7 9 4 5 11 18 21 22 23 23 24 22 26 28 26 24 25 25 27 29 28 27 28 29 30 30 31 30 28 25 22 21 24
2 1 2 4 4 2 2 10 7 6 12 12 10 4 3 8 15 20 22 19 19 21 27 26 25 22 24 24 26 26 28 28 29 29 31 33 34 35 33 31 28 23 21 22
8 2 3 2 3 2 3 7 6 5 8 11 11 13 13 9 5 18 21 18 20 22 23 21 23 24 23 25 25 26 27 28 29 32 33 35 37 36 35 33 30 25 22 19
4 2 3 3 3 1 2 13 16 6 2 16 15 12 14 18 6 4 16 19 22 23 22 24 23 23 24 24 24 26 28 29 31 32 33 33 35 35 35 33 31 28 24 18
3 2 3 4 2 3 9 19 13 1 4 13 13 11 11 6 5 4 12 18 21 22 23 22 22 22 22 23 24 26 27 30 30 28 28 30 33 34 33 31 28 27 23 17
2 3 2 3 2 2 18 4 4 6 6 10 15 15 9 8 8 10 13 16 21 23 23 21 21 21 22 22 24 27 29 27 27 26 27 29 31 32 32 31 28 26 23 19
1 1 2 1 1 5 8 7 7 8 9 11 11 13 9 9 10 13 16 16 19 21 20 19 20 21 23 23 24 25 26 26 24 25 26 28 29 31 33 34 34 31 26 23
1 4 1 2 3 4 5 6 7 8 8 7 11 9 9 10 11 13 16 18 21 22 22 22 21 22 23 24 24 24 24 24 23 24 26 27 28 29 32 34 34 35 36 31
0 2 1 1 4 6 5 6 7 6 7 7 9 10 10 10 12 14 17 18 19 18 18 19 21 22 23 23 23 24 24 24 25 24 26 28 28 28 30 31 32 32 32 31
3 2 1 2 2 1 2 4 6 6 6 6 7 9 9 10 11 13 13 15 15 17 17 18 19 20 21 22 22 22 23 23 22 23 24 25 26 26 28 29 27 28 28 27

GFSCGP_850_spd_132.txt.gz
Wind_Speed
1 6 6 7 5 8 9 13 18 14 16 14 12 27 34 34 27 29 32 32 35 38 35 35 44 39 37 39 37 35 34 38 38 42 51 50 46 44 35 34 38 37 40 41
5 5 5 3 4 7 11 14 18 13 2 18 17 29 31 23 15 16 22 32 37 38 39 36 35 43 39 40 38 38 37 40 40 41 52 54 52 45 42 40 37 38 38 39
6 4 4 4 7 9 13 13 16 21 18 20 11 18 10 17 16 35 34 36 38 41 44 39 38 37 41 40 41 38 39 41 41 41 41 49 44 30 28 30 33 33 35 38
5 1 3 7 10 7 12 5 10 18 17 7 12 9 14 17 23 26 34 33 38 40 40 43 45 43 40 42 39 37 38 41 42 40 42 48 54 42 38 40 29 29 33 31
3 3 4 5 2 3 6 9 15 18 18 16 7 7 9 21 26 30 30 42 38 37 37 37 29 30 36 35 36 33 37 38 41 40 41 44 49 47 33 27 27 32 34 31
9 6 5 3 6 8 12 15 17 3 3 5 5 4 8 14 18 25 29 38 44 41 35 29 26 16 6 8 20 25 27 33 40 42 40 39 41 31 29 30 32 29 29 30
2 5 3 4 9 4 4 10 4 4 5 6 2 10 11 21 21 17 20 29 38 42 35 29 27 23 18 15 8 9 23 31 32 38 40 36 31 32 33 30 31 29 24 26
2 5 4 2 5 6 7 4 4 6 8 15 16 3 6 21 26 27 29 30 34 40 37 33 29 26 26 24 22 18 16 25 33 33 35 34 38 38 31 29 25 24 21 22
2 2 3 7 5 5 2 3 3 6 15 7 4 9 11 25 23 28 28 32 33 37 39 38 34 32 30 28 26 23 22 25 27 26 24 23 26 25 22 20 22 24 27 29
1 4 3 3 3 3 6 7 3 3 5 8 8 7 11 23 22 22 21 28 31 37 39 39 36 33 31 30 26 25 26 25 24 21 18 18 17 15 17 20 21 25 27 27
2 3 3 3 1 5 3 3 4 5 6 5 7 5 7 14 15 18 22 27 29 34 35 37 35 35 35 31 28 27 28 26 24 16 15 19 16 16 15 14 13 16 20 24
3 2 3 4 3 1 6 7 7 4 2 9 8 5 12 11 15 19 22 25 29 31 34 37 37 34 34 33 31 34 32 30 26 21 18 14 11 10 11 9 8 10 13 18
4 2 3 6 6 9 3 10 8 7 6 3 4 4 8 12 15 21 22 23 26 29 37 42 44 44 42 40 39 36 32 29 25 24 23 17 15 11 6 2 3 7 14 18
2 1 3 6 4 3 6 10 9 5 4 4 4 3 10 12 14 19 23 24 26 29 34 38 41 41 41 39 38 37 32 29 26 22 20 17 15 15 12 8 8 11 15 20
0 2 4 10 11 4 2 7 12 12 13 7 4 4 8 11 12 14 18 23 27 31 33 34 35 35 37 37 35 33 29 29 25 20 22 20 16 15 14 13 13 14 17 20
3 1 6 7 6 11 7 8 12 9 11 11 4 6 3 7 12 19 22 23 25 27 27 27 28 28 30 31 29 28 30 24 24 24 21 20 17 12 15 14 15 18 18 19
3 2 5 3 2 10 4 5 6 10 11 6 9 8 12 6 13 18 21 22 23 25 26 25 24 25 26 27 28 30 28 24 23 25 20 23 24 21 21 21 20 20 21 21
2 4 3 3 4 3 5 2 5 10 9 9 6 9 11 1 6 16 20 22 24 24 25 25 23 23 23 24 25 21 17 19 21 19 23 25 25 25 24 23 22 21 21 22
8 3 3 3 1 6 8 3 3 3 5 9 9 10 15 4 10 10 18 18 18 19 20 21 22 25 26 27 24 23 25 25 26 27 26 27 27 25 26 25 24 25 25 25
7 5 5 3 3 3 6 8 3 4 4 9 10 11 12 13 5 8 16 16 17 17 18 19 19 19 23 26 25 25 26 26 28 28 28 28 28 28 28 28 28 26 25 25
4 4 5 2 3 3 4 8 1 5 4 7 9 10 10 7 6 9 13 15 17 17 18 17 17 19 22 24 24 24 24 27 26 26 26 26 26 27 28 27 28 30 26 23
4 2 2 2 4 3 10 2 3 3 2 5 6 8 7 5 7 10 13 15 16 18 19 19 18 19 20 22 23 24 24 23 23 23 24 25 27 27 27 27 28 30 32 31
3 3 1 4 3 4 8 8 5 2 2 4 5 6 6 6 7 9 11 13 15 17 17 18 19 19 20 22 23 22 22 21 21 21 23 23 25 26 28 30 32 30 33 35
3 1 1 5 5 6 6 6 4 4 4 4 5 5 6 7 8 9 10 12 14 16 18 19 20 21 23 24 24 24 23 22 22 23 23 23 25 26 27 29 32 32 35 35
3 8 4 3 8 8 5 5 4 4 5 5 5 5 6 6 8 9 9 11 12 13 15 17 18 19 20 21 22 22 22 22 21 20 21 23 22 24 24 25 28 30 30 31
5 4 4 1 11 4 10 6 3 4 3 3 2 3 6 7 7 8 9 10 11 11 12 13 15 16 18 20 21 22 21 21 21 19 21 21 20 21 22 23 20 21 25 27

GFSCGP_850_spd_135.txt.gz
Wind_Speed
7 8 12 10 7 8 10 13 15 14 14 12 19 25 21 22 12 24 25 26 29 32 35 35 35 32 34 31 32 37 36 36 31 40 42 41 42 41 38 37 35 36 36 43
8 13 8 4 5 7 11 15 14 13 3 16 20 26 23 9 23 24 28 29 33 36 35 34 33 33 33 38 37 38 41 41 42 40 44 44 42 43 46 40 36 35 33 39
10 7 1 6 8 10 12 13 13 14 15 17 18 19 14 15 24 29 32 32 31 33 37 36 34 32 33 38 43 37 40 41 41 40 43 41 40 40 43 39 33 36 36 42
7 6 2 7 10 7 11 6 11 13 14 12 15 16 16 14 18 20 30 35 35 34 34 33 33 34 35 38 31 37 37 39 41 49 43 46 45 47 44 44 45 37 41 40
4 5 5 6 5 3 7 10 15 17 15 17 17 9 2 16 22 25 28 30 32 32 32 33 34 33 31 33 24 23 35 37 40 45 45 47 47 45 39 42 42 37 33 34
11 2 5 5 5 8 10 13 18 17 6 8 12 8 6 12 20 22 27 28 31 31 30 29 29 31 31 30 25 17 17 35 38 45 43 54 51 42 41 40 39 38 36 37
8 9 5 5 7 6 6 11 8 5 7 10 11 9 8 16 19 19 24 30 32 31 30 30 32 34 36 35 28 17 17 19 29 35 41 56 50 48 40 41 41 38 39 37
8 7 11 7 3 6 7 6 6 7 10 14 19 1 6 15 21 24 27 29 31 34 32 33 32 34 37 33 28 22 14 8 10 30 31 33 42 44 39 38 38 38 41 37
5 5 5 4 4 4 3 4 6 6 13 12 12 11 6 22 21 27 30 32 33 34 33 34 35 31 33 34 27 22 19 16 15 14 22 15 33 21 32 37 35 35 36 29
3 4 6 4 7 11 8 7 4 3 5 9 4 6 9 20 21 21 21 29 33 35 36 39 39 33 30 31 30 25 24 25 22 18 13 22 18 16 22 29 34 30 31 26
3 4 8 5 7 2 4 2 3 7 9 8 8 4 6 12 14 17 22 25 29 35 38 36 36 34 33 30 32 29 22 26 25 23 20 15 16 15 15 17 15 14 18 21
4 3 5 2 6 1 3 4 4 3 8 8 11 4 7 10 13 17 22 25 29 32 34 34 35 36 38 36 35 31 35 29 29 29 23 16 21 13 19 17 14 14 20 15
6 4 4 7 8 11 1 3 9 9 11 14 6 4 6 12 14 18 20 24 27 29 33 36 38 41 41 40 40 42 40 37 36 30 28 29 26 12 23 20 14 3 5 7
1 4 4 3 1 2 4 4 8 9 7 4 4 3 8 8 10 14 18 22 24 27 32 33 37 40 41 41 41 43 40 38 33 33 30 26 21 24 23 15 8 5 4 1
5 5 5 5 4 5 0 2 5 4 10 5 3 4 9 6 7 12 16 20 24 27 31 35 36 37 38 40 40 39 39 36 36 33 32 29 22 21 18 17 11 11 10 7
5 4 4 4 3 12 4 2 2 2 3 5 2 7 9 5 9 15 18 21 23 25 28 29 31 33 35 37 37 34 35 35 30 31 33 28 28 26 23 18 17 18 14 13
6 3 3 3 7 10 5 3 3 5 6 6 5 6 11 6 8 13 17 20 23 24 25 26 27 29 33 34 33 32 31 29 31 29 27 29 31 30 27 26 23 21 22 20
5 4 1 1 11 5 4 5 4 8 4 5 4 4 7 3 2 10 17 19 21 22 24 25 26 26 28 29 30 29 30 30 32 30 29 31 29 29 30 31 29 26 24 25
4 3 3 3 3 6 6 6 6 7 5 2 3 5 9 5 9 8 17 17 17 18 18 19 21 22 24 28 28 30 30 31 31 30 29 28 25 27 30 29 29 25 24 23
7 3 4 5 8 4 7 3 3 4 5 2 3 6 9 12 3 7 15 15 16 16 16 18 18 20 23 26 24 25 28 30 32 32 30 29 30 29 29 27 25 23 25 25
7 4 7 6 5 6 5 5 9 4 4 3 5 5 7 6 5 7 10 12 13 14 15 16 16 18 20 23 24 24 24 26 24 24 26 27 26 25 24 24 24 28 25 23
7 7 5 5 5 5 4 7 4 4 5 3 4 5 4 4 5 7 9 11 12 15 16 17 17 17 19 22 24 24 26 26 24 23 23 23 25 26 26 27 26 28 28 29
4 3 1 4 3 6 8 10 6 4 4 3 3 4 4 4 6 7 8 9 10 13 16 16 17 18 19 21 23 24 24 26 24 23 23 22 23 23 24 25 28 30 32 33
3 2 3 5 4 7 7 8 7 5 5 3 3 4 5 5 6 7 8 9 10 14 15 17 17 19 21 23 22 22 23 22 21 22 21 21 22 23 24 24 27 29 34 35
2 9 6 4 6 6 6 6 6 5 5 3 4 5 5 5 6 7 7 8 9 11 12 14 16 17 19 20 21 21 23 23 21 19 20 22 20 21 21 21 24 25 26 31
7 4 6 2 13 2 13 8 6 5 3 2 1 2 5 6 6 6 7 8 9 11 12 13 14 14 16 17 19 21 22 22 22 20 21 22 21 21 21 21 19 20 23 23

GFSCGP_850_spd_138.txt.gz
Wind_Speed
17 7 11 13 4 8 8 12 15 14 13 11 12 14 14 15 22 21 21 25 27 28 27 30 34 38 37 31 27 27 29 26 40 38 32 41 43 47 42 47 45 41 43 43
8 15 9 4 4 6 9 13 15 13 11 10 15 16 5 17 17 19 24 26 29 34 35 36 37 38 40 37 30 36 33 32 34 43 42 34 46 48 53 44 53 53 41 43
14 10 3 5 9 10 12 11 12 13 14 15 17 14 19 15 18 21 25 26 26 28 34 36 37 38 42 40 33 37 34 27 31 40 44 47 41 47 45 49 46 46 52 47
10 2 5 6 10 10 11 7 6 12 11 11 13 6 14 13 16 18 27 28 32 35 35 34 36 37 37 39 38 38 35 29 19 37 42 44 41 45 49 54 48 43 49 51
5 7 6 7 10 2 7 8 10 14 14 15 17 9 7 12 17 19 25 30 32 31 32 35 36 37 35 38 35 38 36 30 23 21 34 42 44 42 48 54 48 46 48 50
15 5 4 10 2 7 10 11 15 16 13 9 16 11 12 9 16 16 21 25 29 31 32 34 36 36 34 35 33 32 33 30 28 26 27 37 45 45 45 51 52 45 46 49
15 14 7 5 7 9 7 11 6 3 6 8 8 7 8 13 14 15 19 25 28 28 33 37 40 40 36 34 32 28 25 26 26 31 31 35 44 39 48 57 58 49 43 48
12 7 14 11 4 5 4 6 5 5 6 11 19 5 6 11 15 19 20 21 24 29 33 34 36 37 37 34 32 28 26 20 19 21 23 31 33 44 51 51 55 50 53 49
8 5 12 7 3 3 3 5 7 7 14 11 6 9 9 14 15 19 23 25 26 30 32 34 34 34 35 34 30 30 24 22 25 20 17 13 12 18 29 30 49 48 50 48
2 6 10 10 4 10 8 5 4 4 4 8 2 8 4 15 16 17 18 22 25 29 33 33 34 37 37 37 37 32 25 24 26 18 18 13 5 7 20 7 24 17 53 43
5 4 8 6 7 8 9 5 4 6 6 6 7 4 3 9 11 13 16 19 24 29 33 32 35 38 38 38 42 40 38 28 27 17 22 20 19 17 15 15 30 8 40 44
4 5 6 11 6 3 3 2 2 2 7 7 4 3 4 8 11 14 16 20 22 24 30 34 34 39 41 41 41 42 39 36 29 25 24 22 21 22 21 16 14 14 23 33
7 5 5 4 6 7 4 4 3 6 7 10 6 4 5 9 11 14 15 18 22 23 30 33 37 39 39 39 38 39 38 35 36 35 32 31 32 27 25 20 19 23 19 17
2 3 3 2 3 4 4 4 3 4 5 6 1 3 5 5 6 10 10 15 20 22 26 30 35 37 36 37 38 38 39 35 38 38 37 37 37 32 26 20 28 24 19 18
2 3 6 6 4 9 2 5 5 2 2 3 2 4 6 2 4 9 15 18 19 23 26 28 30 33 36 37 37 38 38 36 33 39 40 42 36 36 30 24 24 23 21 14
5 2 2 6 10 10 5 7 4 5 3 2 1 6 7 6 5 11 16 19 20 22 23 25 26 29 32 35 35 36 37 38 37 36 37 36 36 37 30 31 26 28 22 16
7 4 4 9 13 7 3 2 1 8 5 4 1 4 7 6 6 10 15 17 19 21 23 24 25 26 28 30 31 32 32 34 37 37 36 36 35 32 31 28 32 30 21 13
7 6 1 4 10 3 2 4 4 9 4 2 2 3 7 7 2 7 13 16 18 20 21 22 25 26 28 29 28 30 31 33 36 36 36 32 31 30 30 32 29 28 25 26
6 5 3 3 7 5 6 9 6 6 6 5 2 3 8 10 9 9 13 14 16 18 19 20 21 23 27 30 28 28 31 34 35 36 35 33 31 32 32 32 29 29 25 26
8 5 5 5 8 3 7 7 4 6 4 4 0 3 7 12 4 6 14 14 14 16 17 20 19 22 27 30 28 29 31 32 34 33 32 32 32 33 34 31 33 28 25 27
6 5 8 7 4 5 6 9 10 4 4 5 4 4 5 5 5 8 10 11 12 14 16 18 18 22 26 28 29 29 31 32 30 28 28 29 30 31 30 30 31 29 30 32
8 6 5 7 6 5 5 10 4 8 8 7 6 4 4 3 3 5 8 9 12 15 16 18 18 20 24 26 28 29 30 28 27 27 28 27 28 28 29 31 31 34 35 34
2 1 1 4 4 11 10 16 13 9 11 7 6 4 4 3 5 5 7 8 10 16 17 18 18 20 23 24 25 26 27 28 26 26 27 26 28 30 30 32 35 35 36 36
4 2 4 3 9 12 13 12 12 11 10 8 6 5 4 4 4 5 6 8 10 15 16 19 18 20 22 22 23 23 25 26 26 26 27 28 29 28 29 30 36 36 37 37
3 9 6 6 10 11 8 10 10 11 9 9 8 7 6 4 5 5 6 7 8 11 12 16 17 18 20 20 22 23 25 27 26 25 25 27 26 26 26 25 27 31 33 34
7 5 5 2 15 4 16 12 11 10 8 7 6 5 5 6 5 5 6 6 7 9 10 12 15 15 17 19 21 21 22 25 25 25 25 26 26 26 24 24 24 23 25 28